When you browse on this site, cookies collect data to enhance your experience and personalize the content and advertising you see.
Visit our Privacy Policy to learn more. By continuing to use the site, you agree to this use of cookies and data.
  • In Romania
  • List of Countries
  • For 7 days
  • Water Temperature
  • Weather Map
  • Weather Widgets
  • user-avatar
    Login

    Hourly Weather Port-au-Princ

    Today, 26 August, Monday

    Time Temperature Precipitation Wind Pressure Humidity
    00:00 +26°C° 0 mm 1 mps 736 mmHg 83%
    01:00 +26°C° 0 mm 1 mps 736 mmHg 83%
    02:00 +25°C° 0 mm 1 mps 736 mmHg 82%
    03:00 +25°C° 0 mm 1 mps 735 mmHg 82%
    04:00 +25°C° 0 mm 1 mps 735 mmHg 82%
    05:00 +26°C° 0 mm 1 mps 736 mmHg 80%
    06:00 +26°C° 0 mm 1 mps 736 mmHg 78%
    07:00 +27°C° 0 mm 1 mps 736 mmHg 77%
    08:00 +28°C° 0 mm 1 mps 737 mmHg 71%
    09:00 +30°C° 0 mm 1 mps 737 mmHg 66%
    10:00 +31°C° 0 mm 1 mps 737 mmHg 60%
    11:00 +32°C° 0 mm 1 mps 737 mmHg 57%
    12:00 +33°C° 0 mm 1 mps 737 mmHg 55%
    13:00 +33°C° 0 mm 1 mps 736 mmHg 52%
    14:00 +34°C° 0.3 mm 2 mps 736 mmHg 56%
    15:00 +32°C° 0.3 mm 2 mps 735 mmHg 60%
    16:00 +32°C° 0.3 mm 2 mps 735 mmHg 63%
    17:00 +30°C° 0.2 mm 2 mps 735 mmHg 70%
    18:00 +29°C° 0.2 mm 1 mps 735 mmHg 76%
    19:00 +26°C° 0.2 mm 0 mps 735 mmHg 82%
    20:00 +25°C° 0 mm 0 mps 736 mmHg 81%
    21:00 +27°C° 0 mm 1 mps 736 mmHg 80%
    22:00 +27°C° 0 mm 1 mps 737 mmHg 79%
    23:00 +26°C° 0 mm 1 mps 736 mmHg 79%

    Tomorrow, 27 August, Tuesday

    Time Temperature Precipitation Wind Pressure Humidity
    00:00 +26°C° 0 mm 1 mps 736 mmHg 80%
    01:00 +26°C° 0 mm 1 mps 736 mmHg 80%
    02:00 +25°C° 0 mm 1 mps 736 mmHg 81%
    03:00 +25°C° 0 mm 1 mps 736 mmHg 81%
    04:00 +25°C° 0 mm 1 mps 736 mmHg 82%
    05:00 +26°C° 0 mm 1 mps 736 mmHg 81%
    06:00 +26°C° 0 mm 2 mps 736 mmHg 80%
    07:00 +27°C° 0 mm 2 mps 736 mmHg 79%
    08:00 +28°C° 0 mm 2 mps 736 mmHg 71%
    09:00 +30°C° 0 mm 1 mps 737 mmHg 64%
    10:00 +31°C° 0 mm 1 mps 737 mmHg 57%
    11:00 +32°C° 0 mm 1 mps 736 mmHg 55%
    12:00 +34°C° 0 mm 2 mps 736 mmHg 53%
    13:00 +34°C° 0 mm 2 mps 735 mmHg 52%
    14:00 +34°C° 0.1 mm 2 mps 735 mmHg 55%
    15:00 +32°C° 0.1 mm 2 mps 735 mmHg 59%
    16:00 +32°C° 0.1 mm 2 mps 734 mmHg 63%
    17:00 +30°C° 0.4 mm 2 mps 735 mmHg 69%
    18:00 +29°C° 0.4 mm 1 mps 735 mmHg 75%
    19:00 +28°C° 0.4 mm 1 mps 735 mmHg 81%
    20:00 +27°C° 0.4 mm 1 mps 735 mmHg 81%
    21:00 +27°C° 0.4 mm 1 mps 736 mmHg 81%
    22:00 +27°C° 0.4 mm 1 mps 736 mmHg 80%
    23:00 +25°C° 0 mm 0 mps 736 mmHg 81%

    Day after tomorrow, 28 August, Wednesday

    Time Temperature Precipitation Wind Pressure Humidity
    00:00 +24°C° 0 mm 0 mps 735 mmHg 81%
    01:00 +24°C° 0 mm 0 mps 735 mmHg 82%
    02:00 +24°C° 0 mm 0 mps 735 mmHg 82%
    03:00 +26°C° 0 mm 1 mps 735 mmHg 83%
    04:00 +25°C° 0 mm 1 mps 734 mmHg 83%
    05:00 +26°C° 0 mm 1 mps 735 mmHg 81%
    06:00 +26°C° 0 mm 1 mps 735 mmHg 79%
    07:00 +27°C° 0 mm 1 mps 735 mmHg 76%
    08:00 +28°C° 0 mm 1 mps 735 mmHg 72%
    09:00 +29°C° 0 mm 1 mps 735 mmHg 68%
    10:00 +30°C° 0 mm 1 mps 736 mmHg 64%
    11:00 +31°C° 0 mm 1 mps 735 mmHg 62%
    12:00 +32°C° 0 mm 2 mps 735 mmHg 61%
    13:00 +32°C° 0 mm 2 mps 735 mmHg 59%
    14:00 +31°C° 0.3 mm 2 mps 734 mmHg 64%
    15:00 +31°C° 0.3 mm 3 mps 734 mmHg 70%
    16:00 +30°C° 0.3 mm 3 mps 733 mmHg 75%
    17:00 +29°C° 0.6 mm 2 mps 734 mmHg 79%
    18:00 +28°C° 0.6 mm 2 mps 734 mmHg 83%
    19:00 +27°C° 0.6 mm 2 mps 734 mmHg 87%
    20:00 +27°C° 0.2 mm 1 mps 734 mmHg 86%
    21:00 +27°C° 0.2 mm 1 mps 734 mmHg 85%
    22:00 +24°C° 0.2 mm 0 mps 735 mmHg 84%
    23:00 +24°C° 0 mm 0 mps 734 mmHg 84%

    29 August, Thursday

    Time Temperature Precipitation Wind Pressure Humidity
    00:00 +24°C° 0 mm 0 mps 734 mmHg 84%
    01:00 +26°C° 0 mm 1 mps 733 mmHg 84%
    02:00 +26°C° 0 mm 1 mps 733 mmHg 84%
    03:00 +26°C° 0 mm 1 mps 733 mmHg 84%
    04:00 +23°C° 0 mm 0 mps 733 mmHg 85%
    05:00 +24°C° 0 mm 0 mps 734 mmHg 83%
    06:00 +26°C° 0 mm 1 mps 734 mmHg 82%
    07:00 +27°C° 0 mm 1 mps 734 mmHg 81%
    08:00 +28°C° 0 mm 1 mps 734 mmHg 77%
    09:00 +29°C° 0 mm 1 mps 735 mmHg 72%
    10:00 +30°C° 0 mm 1 mps 735 mmHg 68%
    11:00 +31°C° 0.1 mm 1 mps 735 mmHg 67%
    12:00 +31°C° 0.1 mm 1 mps 734 mmHg 67%
    13:00 +31°C° 0.1 mm 2 mps 734 mmHg 66%
    14:00 +31°C° 0.7 mm 1 mps 734 mmHg 68%
    15:00 +30°C° 0.7 mm 1 mps 733 mmHg 70%
    16:00 +30°C° 0.7 mm 1 mps 733 mmHg 72%
    17:00 +29°C° 0.7 mm 1 mps 734 mmHg 76%
    18:00 +28°C° 0.7 mm 1 mps 734 mmHg 80%
    19:00 +27°C° 0.7 mm 1 mps 734 mmHg 83%
    20:00 +27°C° 0 mm 1 mps 735 mmHg 84%
    21:00 +27°C° 0 mm 1 mps 735 mmHg 85%
    22:00 +26°C° 0 mm 1 mps 735 mmHg 85%
    23:00 +26°C° 0 mm 1 mps 735 mmHg 84%

    30 August, Friday

    Time Temperature Precipitation Wind Pressure Humidity
    00:00 +26°C° 0 mm 1 mps 735 mmHg 83%
    01:00 +26°C° 0 mm 1 mps 734 mmHg 82%
    02:00 +25°C° 0 mm 1 mps 734 mmHg 82%
    03:00 +25°C° 0 mm 1 mps 734 mmHg 82%
    04:00 +25°C° 0 mm 1 mps 734 mmHg 82%
    05:00 +26°C° 0 mm 1 mps 735 mmHg 80%
    06:00 +26°C° 0 mm 1 mps 735 mmHg 79%
    07:00 +27°C° 0 mm 1 mps 736 mmHg 78%
    08:00 +28°C° 0 mm 1 mps 736 mmHg 73%
    09:00 +30°C° 0 mm 1 mps 736 mmHg 68%
    10:00 +31°C° 0 mm 1 mps 737 mmHg 63%
    11:00 +32°C° 0.3 mm 1 mps 736 mmHg 62%
    12:00 +32°C° 0.3 mm 1 mps 736 mmHg 60%
    13:00 +33°C° 0.3 mm 1 mps 735 mmHg 58%
    14:00 +32°C° 1.2 mm 1 mps 735 mmHg 62%
    15:00 +31°C° 1.2 mm 2 mps 735 mmHg 65%
    16:00 +31°C° 1.2 mm 2 mps 734 mmHg 69%
    17:00 +30°C° 2.7 mm 1 mps 735 mmHg 74%
    18:00 +28°C° 2.7 mm 1 mps 735 mmHg 79%
    19:00 +27°C° 2.7 mm 1 mps 735 mmHg 84%
    20:00 +27°C° 0.4 mm 1 mps 736 mmHg 84%
    21:00 +27°C° 0.4 mm 1 mps 736 mmHg 83%
    22:00 +26°C° 0.4 mm 1 mps 736 mmHg 82%
    23:00 +26°C° 0 mm 1 mps 736 mmHg 83%

    31 August, Saturday

    Time Temperature Precipitation Wind Pressure Humidity
    00:00 +26°C° 0 mm 1 mps 735 mmHg 84%
    01:00 +26°C° 0 mm 2 mps 735 mmHg 85%
    02:00 +26°C° 0 mm 2 mps 735 mmHg 85%
    03:00 +26°C° 0 mm 2 mps 735 mmHg 85%
    04:00 +26°C° 0 mm 2 mps 735 mmHg 85%
    05:00 +26°C° 0 mm 1 mps 735 mmHg 83%
    06:00 +27°C° 0 mm 1 mps 736 mmHg 81%
    07:00 +27°C° 0 mm 1 mps 736 mmHg 79%
    08:00 +28°C° 0 mm 1 mps 736 mmHg 74%
    09:00 +30°C° 0 mm 1 mps 736 mmHg 69%
    10:00 +31°C° 0 mm 1 mps 737 mmHg 64%
    11:00 +31°C° 0.5 mm 1 mps 736 mmHg 64%
    12:00 +31°C° 0.5 mm 2 mps 736 mmHg 64%
    13:00 +31°C° 0.5 mm 2 mps 735 mmHg 65%
    14:00 +31°C° 2 mm 2 mps 735 mmHg 69%
    15:00 +30°C° 2 mm 2 mps 734 mmHg 73%
    16:00 +29°C° 2 mm 2 mps 734 mmHg 77%
    17:00 +28°C° 3.6 mm 2 mps 734 mmHg 82%
    18:00 +27°C° 3.6 mm 2 mps 734 mmHg 87%
    19:00 +26°C° 3.6 mm 2 mps 735 mmHg 91%
    20:00 +26°C° 0.3 mm 2 mps 735 mmHg 90%
    21:00 +26°C° 0.3 mm 1 mps 735 mmHg 88%
    22:00 +26°C° 0.3 mm 1 mps 735 mmHg 87%
    23:00 +26°C° 0 mm 1 mps 735 mmHg 86%
    Show more